NKS1523 KFLL-KEWR

Flight info

Callsign NKS1523
Flight time 2h 16m
Altitude 35000
Route FEALX2 ETECK GRUBR Y299 SEELO GARIC Q129 AARNN QUART PHLBO4
Aircraft A320/M-SDE3FGHIRWY/LB1

Departure

Time 2026-05-04 00:34
Airport Fort Lauderdale Hollywood International Airport (KFLL)

Arrival

Time 2026-05-04 02:51
Airport Newark Liberty International Airport (KEWR)
Time Latitude Longitude Altitude Speed Heading
2026-05-04 00:03 26.07493 -80.15811 14 ft 2 kts 273°
2026-05-04 00:03 26.07494 -80.15823 14 ft 1 kts 271°
2026-05-04 00:03 26.07494 -80.15831 14 ft 0 kts 271°
2026-05-04 00:04 26.07494 -80.15832 15 ft 2 kts 271°
2026-05-04 00:04 26.07494 -80.15848 15 ft 0 kts 271°
2026-05-04 00:05 26.07495 -80.15885 15 ft 7 kts 272°
2026-05-04 00:06 26.07496 -80.15902 16 ft 0 kts 272°
2026-05-04 00:07 26.07496 -80.15921 16 ft 3 kts 270°
2026-05-04 00:07 26.07496 -80.15935 17 ft 0 kts 269°
2026-05-04 00:08 26.07496 -80.15940 17 ft 3 kts 269°
2026-05-04 00:08 26.07496 -80.15986 18 ft 9 kts 270°
2026-05-04 00:08 26.07496 -80.16052 19 ft 7 kts 270°
2026-05-04 00:09 26.07496 -80.16064 19 ft 0 kts 270°
2026-05-04 00:09 26.07496 -80.16068 19 ft 3 kts 271°
2026-05-04 00:09 26.07496 -80.16088 20 ft 2 kts 269°
2026-05-04 00:10 26.07496 -80.16093 20 ft 0 kts 269°
2026-05-04 00:12 26.07496 -80.16114 20 ft 0 kts 269°
2026-05-04 00:13 26.07496 -80.16119 20 ft 3 kts 269°
2026-05-04 00:13 26.07496 -80.16137 20 ft 0 kts 269°
2026-05-04 00:14 26.07496 -80.16166 20 ft 6 kts 270°
2026-05-04 00:14 26.07496 -80.16188 19 ft 0 kts 270°
2026-05-04 00:15 26.07496 -80.16196 19 ft 3 kts 270°
2026-05-04 00:15 26.07496 -80.16202 19 ft 0 kts 270°
2026-05-04 00:16 26.07496 -80.16207 19 ft 1 kts 270°
2026-05-04 00:17 26.07496 -80.16216 19 ft 0 kts 270°
2026-05-04 00:17 26.07496 -80.16218 19 ft 1 kts 270°
2026-05-04 00:20 26.07496 -80.16225 19 ft 5 kts 270°
2026-05-04 00:20 26.07496 -80.16267 19 ft 0 kts 269°
2026-05-04 00:21 26.07496 -80.16293 18 ft 5 kts 270°
2026-05-04 00:22 26.07496 -80.16302 18 ft 0 kts 271°
2026-05-04 00:22 26.07496 -80.16324 18 ft 10 kts 271°
2026-05-04 00:22 26.07497 -80.16342 18 ft 0 kts 270°
2026-05-04 00:24 26.07497 -80.16352 18 ft 3 kts 270°
2026-05-04 00:24 26.07497 -80.16375 18 ft 3 kts 270°
2026-05-04 00:24 26.07497 -80.16388 18 ft 0 kts 270°
2026-05-04 00:25 26.07497 -80.16401 18 ft 5 kts 270°
2026-05-04 00:25 26.07497 -80.16437 18 ft 5 kts 270°
2026-05-04 00:25 26.07497 -80.16478 19 ft 6 kts 270°
2026-05-04 00:25 26.07497 -80.16515 19 ft 0 kts 271°
2026-05-04 00:26 26.07497 -80.16517 19 ft 0 kts 270°
2026-05-04 00:26 26.07497 -80.16519 19 ft 0 kts 270°
2026-05-04 00:27 26.07497 -80.16521 19 ft 0 kts 270°
2026-05-04 00:27 26.07497 -80.16524 19 ft 2 kts 271°
2026-05-04 00:27 26.07498 -80.16545 19 ft 3 kts 270°
2026-05-04 00:28 26.07498 -80.16575 18 ft 4 kts 270°
2026-05-04 00:28 26.07502 -80.16615 18 ft 6 kts 287°
2026-05-04 00:28 26.07540 -80.16644 17 ft 7 kts 358°
2026-05-04 00:28 26.07548 -80.16643 17 ft 0 kts
2026-05-04 00:31 26.07588 -80.16643 16 ft 0 kts 359°
2026-05-04 00:32 26.07589 -80.16643 16 ft 2 kts 359°
2026-05-04 00:32 26.07666 -80.16641 17 ft 14 kts 13°
2026-05-04 00:32 26.07695 -80.16571 16 ft 0 kts 90°
2026-05-04 00:33 26.07693 -80.16030 17 ft 97 kts 90°
2026-05-04 00:33 26.07689 -80.15069 12 ft 148 kts 90°
2026-05-04 00:34 26.07678 -80.13854 420 ft 154 kts 89°
2026-05-04 00:34 26.07678 -80.12635 856 ft 160 kts 89°
2026-05-04 00:34 26.07687 -80.11324 1157 ft 181 kts 88°
2026-05-04 00:34 26.07703 -80.09918 1773 ft 183 kts 88°
2026-05-04 00:35 26.07727 -80.08447 2095 ft 200 kts 89°
2026-05-04 00:35 26.07756 -80.06808 2290 ft 224 kts 89°
2026-05-04 00:35 26.07783 -80.04981 2599 ft 248 kts 89°
2026-05-04 00:35 26.07807 -80.02983 3102 ft 265 kts 89°
2026-05-04 00:36 26.07988 -80.00934 3875 ft 270 kts 73°
2026-05-04 00:36 26.08877 -79.99084 4632 ft 275 kts 53°
2026-05-04 00:36 26.10018 -79.97358 5414 ft 280 kts 53°
2026-05-04 00:36 26.11178 -79.95598 6193 ft 284 kts 53°
2026-05-04 00:37 26.12355 -79.93806 6938 ft 289 kts 53°
2026-05-04 00:37 26.13553 -79.91984 7654 ft 294 kts 53°
2026-05-04 00:37 26.14767 -79.90132 8355 ft 299 kts 53°
2026-05-04 00:37 26.15995 -79.88249 9033 ft 303 kts 53°
2026-05-04 00:38 26.17242 -79.86331 9670 ft 308 kts 53°
2026-05-04 00:38 26.18509 -79.84388 10262 ft 316 kts 53°
2026-05-04 00:38 26.19845 -79.82337 10402 ft 338 kts 53°
2026-05-04 00:38 26.21271 -79.80151 10537 ft 359 kts 53°
2026-05-04 00:39 26.22782 -79.77844 10658 ft 379 kts 53°
2026-05-04 00:39 26.24370 -79.75412 10795 ft 397 kts 53°
2026-05-04 00:39 26.26013 -79.72883 11091 ft 408 kts 53°
2026-05-04 00:39 26.27687 -79.70309 11598 ft 413 kts 53°
2026-05-04 00:40 26.29424 -79.67748 12113 ft 417 kts 48°
2026-05-04 00:40 26.31433 -79.65398 12641 ft 420 kts 44°
2026-05-04 00:40 26.33483 -79.63053 13189 ft 424 kts 44°
2026-05-04 00:40 26.35549 -79.60682 13708 ft 428 kts 44°
2026-05-04 00:41 26.37633 -79.58283 14235 ft 433 kts 44°
2026-05-04 00:41 26.39735 -79.55861 14759 ft 437 kts 44°
2026-05-04 00:41 26.41857 -79.53415 15271 ft 441 kts 44°
2026-05-04 00:41 26.43996 -79.50943 15783 ft 444 kts 44°
2026-05-04 00:42 26.46151 -79.48452 16275 ft 449 kts 44°
2026-05-04 00:42 26.48302 -79.45971 16738 ft 453 kts 44°
2026-05-04 00:42 26.50504 -79.43435 17194 ft 457 kts 44°
2026-05-04 00:42 26.52722 -79.40875 17645 ft 460 kts 44°
2026-05-04 00:43 26.55035 -79.38394 18082 ft 462 kts 37°
2026-05-04 00:43 26.57651 -79.36303 18505 ft 463 kts 28°
2026-05-04 00:43 26.60421 -79.34434 18919 ft 467 kts 28°
2026-05-04 00:43 26.63209 -79.32549 19331 ft 470 kts 28°
2026-05-04 00:44 26.66014 -79.30643 19711 ft 474 kts 28°
2026-05-04 00:44 26.68840 -79.28716 20087 ft 478 kts 28°
2026-05-04 00:44 26.71684 -79.26770 20467 ft 481 kts 28°
2026-05-04 00:44 26.74547 -79.24812 20810 ft 484 kts 28°
2026-05-04 00:45 26.77428 -79.22846 21146 ft 487 kts 28°
2026-05-04 00:45 26.80328 -79.20870 21463 ft 490 kts 28°
2026-05-04 00:45 26.83247 -79.18885 21770 ft 492 kts 28°
2026-05-04 00:45 26.86178 -79.16884 22069 ft 495 kts 28°
2026-05-04 00:46 26.89127 -79.14866 22363 ft 498 kts 28°
2026-05-04 00:46 26.92086 -79.12842 22644 ft 500 kts 28°
2026-05-04 00:46 26.95061 -79.10805 22901 ft 502 kts 28°
2026-05-04 00:46 26.98049 -79.08760 23159 ft 505 kts 28°
2026-05-04 00:47 27.01053 -79.06707 23413 ft 507 kts 27°
2026-05-04 00:47 27.04071 -79.04641 23651 ft 509 kts 28°
2026-05-04 00:47 27.07096 -79.02563 23942 ft 510 kts 28°
2026-05-04 00:47 27.10120 -79.00476 24301 ft 510 kts 28°
2026-05-04 00:48 27.13140 -78.98396 24668 ft 510 kts 27°
2026-05-04 00:48 27.16167 -78.96316 25002 ft 510 kts 27°
2026-05-04 00:48 27.19197 -78.94237 25355 ft 511 kts 27°
2026-05-04 00:48 27.22229 -78.92153 25700 ft 511 kts 27°
2026-05-04 00:49 27.25258 -78.90064 26068 ft 511 kts 27°
2026-05-04 00:49 27.28292 -78.87969 26418 ft 512 kts 27°
2026-05-04 00:49 27.31325 -78.85878 26783 ft 512 kts 27°
2026-05-04 00:49 27.34363 -78.83786 27128 ft 513 kts 27°
2026-05-04 00:50 27.37439 -78.81763 27464 ft 511 kts 22°
2026-05-04 00:50 27.40690 -78.80215 27824 ft 504 kts 13°
2026-05-04 00:50 27.44056 -78.79210 28188 ft 497 kts
2026-05-04 00:50 27.47459 -78.78660 28552 ft 494 kts
2026-05-04 00:51 27.50871 -78.78162 28908 ft 494 kts
2026-05-04 00:51 27.54278 -78.77666 29298 ft 493 kts
2026-05-04 00:51 27.57682 -78.77179 29653 ft 494 kts
2026-05-04 00:51 27.61093 -78.76688 30023 ft 494 kts 360°
2026-05-04 00:52 27.64491 -78.76193 30397 ft 493 kts
2026-05-04 00:52 27.67888 -78.75697 30762 ft 493 kts 360°
2026-05-04 00:52 27.71291 -78.75199 31136 ft 493 kts 359°
2026-05-04 00:52 27.74697 -78.74700 31517 ft 493 kts 359°
2026-05-04 00:53 27.78096 -78.74199 31869 ft 493 kts 359°
2026-05-04 00:53 27.81496 -78.73690 32238 ft 493 kts 359°
2026-05-04 00:53 27.84888 -78.73180 32609 ft 492 kts 359°
2026-05-04 00:53 27.88282 -78.72676 32969 ft 491 kts 359°
2026-05-04 00:54 27.91672 -78.72174 33319 ft 491 kts 359°
2026-05-04 00:54 27.95012 -78.71682 33657 ft 491 kts 359°
2026-05-04 00:54 27.98398 -78.71185 33995 ft 490 kts 358°
2026-05-04 00:54 28.01780 -78.70693 34309 ft 490 kts 358°
2026-05-04 00:55 28.05169 -78.70195 34592 ft 491 kts 358°
2026-05-04 00:55 28.08558 -78.69697 34844 ft 492 kts 358°
2026-05-04 00:55 28.11960 -78.69201 35012 ft 493 kts 357°
2026-05-04 00:56 28.18849 -78.68196 35042 ft 506 kts 358°
2026-05-04 00:56 28.25890 -78.67152 35045 ft 513 kts 358°
2026-05-04 00:57 28.32977 -78.66097 35054 ft 514 kts 358°
2026-05-04 00:57 28.38919 -78.65202 35054 ft 514 kts 358°
2026-05-04 00:58 28.45998 -78.64137 35053 ft 513 kts 358°
2026-05-04 00:58 28.53078 -78.63089 35062 ft 513 kts 358°
2026-05-04 00:59 28.60116 -78.62043 35071 ft 514 kts 358°
2026-05-04 00:59 28.67252 -78.60986 35075 ft 514 kts 358°
2026-05-04 01:00 28.74300 -78.59928 35088 ft 515 kts 358°
2026-05-04 01:00 28.81402 -78.58860 35098 ft 514 kts 357°
2026-05-04 01:01 28.88497 -78.57805 35099 ft 514 kts 357°
2026-05-04 01:01 28.95586 -78.56742 35100 ft 514 kts 357°
2026-05-04 01:02 29.02674 -78.55675 35099 ft 514 kts 357°
2026-05-04 01:02 29.09764 -78.54600 35098 ft 514 kts 357°
2026-05-04 01:03 29.16855 -78.53533 35096 ft 514 kts 357°
2026-05-04 01:03 29.23947 -78.52471 35096 ft 514 kts 357°
2026-05-04 01:04 29.31040 -78.51400 35093 ft 514 kts 357°
2026-05-04 01:04 29.38131 -78.50317 35088 ft 514 kts 356°
2026-05-04 01:05 29.45216 -78.49244 35096 ft 514 kts 356°
2026-05-04 01:05 29.48742 -78.48905 35097 ft 502 kts 348°
2026-05-04 01:05 29.52179 -78.49111 35101 ft 490 kts 342°
2026-05-04 01:06 29.58971 -78.49850 35103 ft 491 kts 342°
2026-05-04 01:06 29.65774 -78.50584 35109 ft 491 kts 342°
2026-05-04 01:07 29.72583 -78.51314 35111 ft 492 kts 342°
2026-05-04 01:07 29.79391 -78.52051 35118 ft 491 kts 342°
2026-05-04 01:08 29.86195 -78.52795 35119 ft 491 kts 342°
2026-05-04 01:08 29.92998 -78.53530 35117 ft 491 kts 342°
2026-05-04 01:09 29.99795 -78.54261 35117 ft 490 kts 342°
2026-05-04 01:09 30.06587 -78.54996 35115 ft 490 kts 342°
2026-05-04 01:10 30.13381 -78.55720 35110 ft 494 kts 345°
2026-05-04 01:10 30.16868 -78.55650 35108 ft 510 kts 354°
2026-05-04 01:10 30.20403 -78.55168 35112 ft 512 kts 355°
2026-05-04 01:11 30.27483 -78.54157 35110 ft 513 kts 356°
2026-05-04 01:11 30.34523 -78.53134 35112 ft 514 kts 356°
2026-05-04 01:12 30.41613 -78.52093 35126 ft 513 kts 356°
2026-05-04 01:12 30.48700 -78.51014 35139 ft 514 kts 356°
2026-05-04 01:13 30.55776 -78.49842 35141 ft 514 kts 357°
2026-05-04 01:13 30.62854 -78.48658 35146 ft 513 kts 357°
2026-05-04 01:14 30.69926 -78.47507 35149 ft 513 kts 357°
2026-05-04 01:14 30.76994 -78.46376 35150 ft 512 kts 357°
2026-05-04 01:15 30.84056 -78.45231 35152 ft 513 kts 357°
2026-05-04 01:15 30.91118 -78.44070 35156 ft 512 kts 357°
2026-05-04 01:16 30.98173 -78.42918 35158 ft 512 kts 357°
2026-05-04 01:16 31.05224 -78.41767 35161 ft 511 kts 357°
2026-05-04 01:17 31.12268 -78.40612 35163 ft 511 kts 357°
2026-05-04 01:17 31.19311 -78.39452 35165 ft 511 kts 357°
2026-05-04 01:18 31.26354 -78.38289 35161 ft 511 kts 357°
2026-05-04 01:18 31.33391 -78.37135 35161 ft 510 kts 357°
2026-05-04 01:19 31.40420 -78.35995 35159 ft 510 kts 358°
2026-05-04 01:19 31.47451 -78.34839 35159 ft 510 kts 358°
2026-05-04 01:20 31.54471 -78.33669 35157 ft 509 kts 358°
2026-05-04 01:20 31.61482 -78.32487 35156 ft 509 kts 358°
2026-05-04 01:21 31.68487 -78.31320 35157 ft 508 kts 357°
2026-05-04 01:21 31.75483 -78.30175 35158 ft 507 kts 357°
2026-05-04 01:22 31.82469 -78.29018 35163 ft 507 kts 358°
2026-05-04 01:22 31.89455 -78.27856 35163 ft 507 kts 358°
2026-05-04 01:23 31.96434 -78.26690 35164 ft 507 kts 358°
2026-05-04 01:23 32.03412 -78.25519 35163 ft 506 kts 357°
2026-05-04 01:24 32.10383 -78.24446 35160 ft 504 kts 356°
2026-05-04 01:24 32.17293 -78.23492 35176 ft 504 kts 356°
2026-05-04 01:25 32.24258 -78.22522 35167 ft 504 kts 356°
2026-05-04 01:25 32.31227 -78.21505 35166 ft 505 kts 356°
2026-05-04 01:26 32.38200 -78.20464 35165 ft 505 kts 356°
2026-05-04 01:26 32.45170 -78.19430 35164 ft 505 kts 356°
2026-05-04 01:27 32.52144 -78.18404 35166 ft 505 kts 356°
2026-05-04 01:27 32.59116 -78.17377 35163 ft 505 kts 356°
2026-05-04 01:28 32.66082 -78.16357 35163 ft 504 kts 356°
2026-05-04 01:28 32.73046 -78.15336 35160 ft 504 kts 356°
2026-05-04 01:29 32.80007 -78.14299 35165 ft 504 kts 356°
2026-05-04 01:29 32.86960 -78.13264 35168 ft 503 kts 356°
2026-05-04 01:30 32.93911 -78.12239 35166 ft 503 kts 356°
2026-05-04 01:30 33.00855 -78.11207 35163 ft 503 kts 356°
2026-05-04 01:31 33.07802 -78.10182 35160 ft 503 kts 356°
2026-05-04 01:31 33.14746 -78.09142 35161 ft 503 kts 356°
2026-05-04 01:32 33.21696 -78.08091 35159 ft 503 kts 356°
2026-05-04 01:32 33.28647 -78.07051 35160 ft 504 kts 356°
2026-05-04 01:33 33.35610 -78.06015 35161 ft 504 kts 356°
2026-05-04 01:33 33.42570 -78.04973 35165 ft 504 kts 355°
2026-05-04 01:34 33.49516 -78.03933 35166 ft 503 kts 355°
2026-05-04 01:34 33.56464 -78.02881 35165 ft 503 kts 356°
2026-05-04 01:35 33.63412 -78.01816 35164 ft 503 kts 355°
2026-05-04 01:35 33.70356 -78.00764 35162 ft 503 kts 355°
2026-05-04 01:36 33.77300 -77.99723 35162 ft 503 kts 355°
2026-05-04 01:36 33.84248 -77.98682 35161 ft 503 kts 355°
2026-05-04 01:37 33.91151 -77.98028 35162 ft 493 kts 349°
2026-05-04 01:37 33.98008 -77.97775 35161 ft 493 kts 349°
2026-05-04 01:38 34.04861 -77.97534 35159 ft 493 kts 349°
2026-05-04 01:38 34.11718 -77.97292 35158 ft 493 kts 349°
2026-05-04 01:39 34.18577 -77.97039 35154 ft 493 kts 349°
2026-05-04 01:39 34.25441 -77.96787 35153 ft 493 kts 349°
2026-05-04 01:40 34.32295 -77.96547 35151 ft 493 kts 349°
2026-05-04 01:40 34.37990 -77.96346 35153 ft 492 kts 349°
2026-05-04 01:41 34.44833 -77.96101 35156 ft 491 kts 349°
2026-05-04 01:41 34.51671 -77.95855 35152 ft 491 kts 349°
2026-05-04 01:42 34.58499 -77.95593 35154 ft 491 kts 349°
2026-05-04 01:42 34.65324 -77.95334 35151 ft 490 kts 349°
2026-05-04 01:43 34.72131 -77.95085 35150 ft 489 kts 349°
2026-05-04 01:43 34.78930 -77.94840 35146 ft 489 kts 350°
2026-05-04 01:44 34.85725 -77.94591 35149 ft 488 kts 350°
2026-05-04 01:44 34.92503 -77.94344 35156 ft 487 kts 350°
2026-05-04 01:45 34.99274 -77.94091 35160 ft 486 kts 350°
2026-05-04 01:45 35.09343 -77.93738 35162 ft 484 kts 350°
2026-05-04 01:46 35.16060 -77.93492 35163 ft 482 kts 350°
2026-05-04 01:46 35.22761 -77.93235 35164 ft 481 kts 350°
2026-05-04 01:47 35.29442 -77.92985 35163 ft 480 kts 351°
2026-05-04 01:47 35.36022 -77.93246 35165 ft 470 kts 345°
2026-05-04 01:48 35.42535 -77.93788 35163 ft 469 kts 345°
2026-05-04 01:48 35.49038 -77.94335 35162 ft 468 kts 345°
2026-05-04 01:49 35.55529 -77.94878 35163 ft 467 kts 345°
2026-05-04 01:49 35.62012 -77.95414 35162 ft 466 kts 345°
2026-05-04 01:50 35.68477 -77.95949 35156 ft 465 kts 345°
2026-05-04 01:50 35.74938 -77.96482 35154 ft 465 kts 345°
2026-05-04 01:51 35.81391 -77.97025 35149 ft 465 kts 345°
2026-05-04 01:51 35.87835 -77.97565 35147 ft 464 kts 345°
2026-05-04 01:52 35.94272 -77.98104 35142 ft 463 kts 345°
2026-05-04 01:52 36.00699 -77.98639 35140 ft 463 kts 345°
2026-05-04 01:53 36.07118 -77.99181 35139 ft 462 kts 345°
2026-05-04 01:53 36.13536 -77.99728 35144 ft 462 kts 345°
2026-05-04 01:54 36.16731 -77.99996 34700 ft 460 kts 345°
2026-05-04 01:54 36.19923 -78.00261 33965 ft 460 kts 346°
2026-05-04 01:54 36.23069 -78.00522 33362 ft 458 kts 346°
2026-05-04 01:54 36.26288 -78.00790 33139 ft 458 kts 346°
2026-05-04 01:55 36.32611 -78.01328 33137 ft 459 kts 346°
2026-05-04 01:55 36.39055 -78.01386 33138 ft 474 kts 358°
2026-05-04 01:56 36.45600 -77.99769 33137 ft 481 kts
2026-05-04 01:56 36.52146 -77.98047 33138 ft 481 kts
2026-05-04 01:57 36.58692 -77.96338 33146 ft 481 kts
2026-05-04 01:57 36.65238 -77.94625 33150 ft 480 kts
2026-05-04 01:58 36.71781 -77.92920 33147 ft 481 kts
2026-05-04 01:58 36.78308 -77.91125 33127 ft 480 kts
2026-05-04 01:59 36.84709 -77.88898 33129 ft 477 kts
2026-05-04 01:59 36.91223 -77.87235 33118 ft 478 kts
2026-05-04 02:00 36.97745 -77.85594 33107 ft 478 kts
2026-05-04 02:00 37.04257 -77.83934 33090 ft 478 kts
2026-05-04 02:01 37.10768 -77.82256 33090 ft 478 kts
2026-05-04 02:01 37.17272 -77.80573 33091 ft 477 kts
2026-05-04 02:02 37.23758 -77.78899 33092 ft 476 kts
2026-05-04 02:02 37.30246 -77.77221 33098 ft 476 kts
2026-05-04 02:03 37.36722 -77.75540 33100 ft 475 kts
2026-05-04 02:03 37.43189 -77.73858 33100 ft 474 kts
2026-05-04 02:04 37.49516 -77.72165 33098 ft 479 kts
2026-05-04 02:04 37.52833 -77.70702 33100 ft 492 kts 14°
2026-05-04 02:04 37.55891 -77.68657 33101 ft 504 kts 23°
2026-05-04 02:05 37.61793 -77.63876 33094 ft 504 kts 24°
2026-05-04 02:05 37.67696 -77.59095 33095 ft 504 kts 24°
2026-05-04 02:06 37.73605 -77.54314 33101 ft 504 kts 24°
2026-05-04 02:06 37.79516 -77.49525 33100 ft 505 kts 24°
2026-05-04 02:07 37.85380 -77.44764 33096 ft 505 kts 24°
2026-05-04 02:07 37.91282 -77.39949 33088 ft 505 kts 24°
2026-05-04 02:08 37.97183 -77.35122 33091 ft 505 kts 24°
2026-05-04 02:08 38.03086 -77.30290 33084 ft 504 kts 24°
2026-05-04 02:09 38.08961 -77.25479 33081 ft 502 kts 24°
2026-05-04 02:09 38.14830 -77.20677 33082 ft 502 kts 24°
2026-05-04 02:10 38.20696 -77.15857 33081 ft 502 kts 24°
2026-05-04 02:10 38.26563 -77.11032 33082 ft 502 kts 24°
2026-05-04 02:11 38.32370 -77.06064 33074 ft 506 kts 27°
2026-05-04 02:11 38.37994 -77.00616 33073 ft 509 kts 30°
2026-05-04 02:12 38.43559 -76.95022 33071 ft 509 kts 29°
2026-05-04 02:12 38.49168 -76.89525 33061 ft 508 kts 28°
2026-05-04 02:13 38.54815 -76.84116 33070 ft 507 kts 28°
2026-05-04 02:13 38.60457 -76.78701 33072 ft 508 kts 28°
2026-05-04 02:14 38.66081 -76.73237 33064 ft 508 kts 29°
2026-05-04 02:14 38.71672 -76.67771 33064 ft 508 kts 29°
2026-05-04 02:15 38.77288 -76.62292 33063 ft 507 kts 29°
2026-05-04 02:15 38.82909 -76.56819 33065 ft 507 kts 29°
2026-05-04 02:16 38.88511 -76.51335 33072 ft 506 kts 29°
2026-05-04 02:16 38.94091 -76.45848 33073 ft 505 kts 29°
2026-05-04 02:17 38.99677 -76.40355 33073 ft 505 kts 29°
2026-05-04 02:17 39.05201 -76.34769 32838 ft 507 kts 32°
2026-05-04 02:18 39.07860 -76.31787 32590 ft 508 kts 34°
2026-05-04 02:18 39.10461 -76.28702 32338 ft 509 kts 36°
2026-05-04 02:18 39.13027 -76.25569 32090 ft 508 kts 36°
2026-05-04 02:18 39.15582 -76.22442 31840 ft 506 kts 36°
2026-05-04 02:19 39.18143 -76.19347 31035 ft 506 kts 36°
2026-05-04 02:19 39.20746 -76.16266 29878 ft 510 kts 35°
2026-05-04 02:19 39.23361 -76.13210 29002 ft 504 kts 35°
2026-05-04 02:19 39.25953 -76.10195 27711 ft 498 kts 35°
2026-05-04 02:20 39.28554 -76.07177 26245 ft 505 kts 35°
2026-05-04 02:20 39.31115 -76.04195 25594 ft 498 kts 36°
2026-05-04 02:20 39.33676 -76.01194 25343 ft 497 kts 36°
2026-05-04 02:20 39.36231 -75.98190 25097 ft 497 kts 36°
2026-05-04 02:21 39.38785 -75.95178 24847 ft 497 kts 37°
2026-05-04 02:21 39.41298 -75.92202 24564 ft 498 kts 37°
2026-05-04 02:21 39.43846 -75.89181 24117 ft 496 kts 37°
2026-05-04 02:21 39.46387 -75.86171 23688 ft 494 kts 37°
2026-05-04 02:22 39.48912 -75.83186 23251 ft 490 kts 37°
2026-05-04 02:22 39.51422 -75.80219 22833 ft 487 kts 37°
2026-05-04 02:22 39.53916 -75.77270 22409 ft 484 kts 37°
2026-05-04 02:22 39.56389 -75.74338 21993 ft 480 kts 37°
2026-05-04 02:23 39.58841 -75.71422 21573 ft 477 kts 37°
2026-05-04 02:23 39.61275 -75.68519 21159 ft 474 kts 37°
2026-05-04 02:23 39.63678 -75.65650 20750 ft 471 kts 37°
2026-05-04 02:23 39.66093 -75.62761 20340 ft 468 kts 37°
2026-05-04 02:24 39.68479 -75.59907 19925 ft 465 kts 37°
2026-05-04 02:24 39.70845 -75.57075 19433 ft 461 kts 37°
2026-05-04 02:24 39.73192 -75.54255 18967 ft 458 kts 38°
2026-05-04 02:24 39.75518 -75.51454 18504 ft 454 kts 38°
2026-05-04 02:25 39.77825 -75.48666 18041 ft 451 kts 38°
2026-05-04 02:25 39.80098 -75.45918 17595 ft 448 kts 38°
2026-05-04 02:25 39.82361 -75.43177 17156 ft 439 kts 38°
2026-05-04 02:25 39.84542 -75.40523 17006 ft 420 kts 38°
2026-05-04 02:26 39.86637 -75.37975 16882 ft 405 kts 37°
2026-05-04 02:26 39.88658 -75.35520 16750 ft 390 kts 37°
2026-05-04 02:26 39.90602 -75.33160 16626 ft 375 kts 37°
2026-05-04 02:26 39.91875 -75.31615 16541 ft 365 kts 37°
2026-05-04 02:27 39.93677 -75.29428 16416 ft 353 kts 37°
2026-05-04 02:27 39.95441 -75.27286 16290 ft 341 kts 37°
2026-05-04 02:27 39.97154 -75.25205 16079 ft 333 kts 36°
2026-05-04 02:27 39.98859 -75.23139 15620 ft 327 kts 36°
2026-05-04 02:28 40.00490 -75.21161 14990 ft 323 kts 36°
2026-05-04 02:28 40.02130 -75.19170 14390 ft 318 kts 36°
2026-05-04 02:28 40.03732 -75.17218 13811 ft 313 kts 36°
2026-05-04 02:28 40.05310 -75.15291 13197 ft 309 kts 37°
2026-05-04 02:29 40.06867 -75.13388 12584 ft 305 kts 36°
2026-05-04 02:29 40.08403 -75.11512 11982 ft 300 kts 37°
2026-05-04 02:29 40.09911 -75.09668 11542 ft 291 kts 36°
2026-05-04 02:29 40.11391 -75.07858 11287 ft 293 kts 37°
2026-05-04 02:30 40.12877 -75.06049 10987 ft 292 kts 37°
2026-05-04 02:30 40.14359 -75.04242 10731 ft 291 kts 37°
2026-05-04 02:30 40.15838 -75.02435 10456 ft 291 kts 37°
2026-05-04 02:30 40.17312 -75.00634 10181 ft 291 kts 37°
2026-05-04 02:31 40.18786 -74.98827 9911 ft 290 kts 37°
2026-05-04 02:31 40.20256 -74.97024 9640 ft 290 kts 37°
2026-05-04 02:31 40.21720 -74.95224 9364 ft 289 kts 37°
2026-05-04 02:31 40.23185 -74.93424 9092 ft 289 kts 37°
2026-05-04 02:32 40.24645 -74.91625 8826 ft 288 kts 37°
2026-05-04 02:32 40.26086 -74.89806 8554 ft 288 kts 39°
2026-05-04 02:32 40.27472 -74.87918 8286 ft 287 kts 41°
2026-05-04 02:32 40.28828 -74.85999 8015 ft 287 kts 41°
2026-05-04 02:33 40.30172 -74.84072 7910 ft 287 kts 41°
2026-05-04 02:33 40.31519 -74.82139 7838 ft 287 kts 42°
2026-05-04 02:33 40.32869 -74.80214 7766 ft 287 kts 41°
2026-05-04 02:33 40.34225 -74.78294 7682 ft 287 kts 41°
2026-05-04 02:34 40.35584 -74.76381 7598 ft 286 kts 41°
2026-05-04 02:34 40.36944 -74.74473 7508 ft 286 kts 41°
2026-05-04 02:34 40.38303 -74.72566 7438 ft 286 kts 41°
2026-05-04 02:34 40.39718 -74.70753 7322 ft 283 kts 35°
2026-05-04 02:35 40.41257 -74.69173 7196 ft 279 kts 28°
2026-05-04 02:35 40.42903 -74.67843 7067 ft 276 kts 22°
2026-05-04 02:35 40.44623 -74.66761 6942 ft 273 kts 16°
2026-05-04 02:35 40.46400 -74.65927 6815 ft 270 kts 11°
2026-05-04 02:36 40.48202 -74.65357 6689 ft 265 kts
2026-05-04 02:36 40.50015 -74.64884 6564 ft 266 kts
2026-05-04 02:36 40.51827 -74.64401 6438 ft 266 kts
2026-05-04 02:36 40.53636 -74.63915 6313 ft 265 kts
2026-05-04 02:37 40.55444 -74.63428 6189 ft 265 kts
2026-05-04 02:37 40.57243 -74.62949 6059 ft 264 kts
2026-05-04 02:37 40.59046 -74.62473 5928 ft 264 kts
2026-05-04 02:37 40.60842 -74.61996 5814 ft 263 kts
2026-05-04 02:38 40.62640 -74.61512 5671 ft 264 kts
2026-05-04 02:38 40.64438 -74.61028 5556 ft 263 kts
2026-05-04 02:38 40.66233 -74.60546 5416 ft 263 kts
2026-05-04 02:38 40.68030 -74.60064 5307 ft 263 kts
2026-05-04 02:39 40.69824 -74.59585 5180 ft 263 kts
2026-05-04 02:39 40.71614 -74.59101 5047 ft 263 kts
2026-05-04 02:39 40.73411 -74.58615 4929 ft 263 kts
2026-05-04 02:39 40.75205 -74.58127 4803 ft 263 kts
2026-05-04 02:40 40.76993 -74.57641 4675 ft 263 kts
2026-05-04 02:40 40.78783 -74.57159 4555 ft 263 kts
2026-05-04 02:40 40.80569 -74.56679 4423 ft 262 kts
2026-05-04 02:40 40.82355 -74.56198 4297 ft 262 kts
2026-05-04 02:41 40.84114 -74.55550 4168 ft 265 kts 20°
2026-05-04 02:41 40.85611 -74.54092 4040 ft 274 kts 45°
2026-05-04 02:41 40.86565 -74.51906 3917 ft 279 kts 70°
2026-05-04 02:41 40.87049 -74.49549 3978 ft 282 kts 73°
2026-05-04 02:42 40.87576 -74.46946 4007 ft 282 kts 72°
2026-05-04 02:42 40.88090 -74.44442 4013 ft 282 kts 72°
2026-05-04 02:42 40.88606 -74.41947 4002 ft 281 kts 72°
2026-05-04 02:42 40.89124 -74.39454 4015 ft 282 kts 72°
2026-05-04 02:43 40.89643 -74.36961 4012 ft 281 kts 72°
2026-05-04 02:43 40.90161 -74.34459 4005 ft 282 kts 72°
2026-05-04 02:43 40.90673 -74.31961 4003 ft 282 kts 72°
2026-05-04 02:43 40.91180 -74.29496 4008 ft 282 kts 72°
2026-05-04 02:44 40.91693 -74.26997 4008 ft 281 kts 72°
2026-05-04 02:44 40.92202 -74.24509 4005 ft 277 kts 72°
2026-05-04 02:44 40.92696 -74.22083 4009 ft 270 kts 72°
2026-05-04 02:44 40.93159 -74.19742 4004 ft 257 kts 77°
2026-05-04 02:45 40.93212 -74.17411 4011 ft 254 kts 98°
2026-05-04 02:45 40.92679 -74.15212 3953 ft 248 kts 119°
2026-05-04 02:45 40.91658 -74.13442 3752 ft 240 kts 141°
2026-05-04 02:45 40.90300 -74.12220 3479 ft 234 kts 155°
2026-05-04 02:46 40.88877 -74.11175 3196 ft 234 kts 154°
2026-05-04 02:46 40.87469 -74.10124 3027 ft 231 kts 154°
2026-05-04 02:46 40.86073 -74.09079 2994 ft 231 kts 154°
2026-05-04 02:46 40.84643 -74.08213 2985 ft 218 kts 169°
2026-05-04 02:47 40.83191 -74.08012 2842 ft 204 kts 189°
2026-05-04 02:47 40.81868 -74.08432 2617 ft 190 kts 208°
2026-05-04 02:47 40.80708 -74.09167 2372 ft 181 kts 209°
2026-05-04 02:47 40.79613 -74.09867 2139 ft 169 kts 209°
2026-05-04 02:48 40.78589 -74.10521 1918 ft 157 kts 208°
2026-05-04 02:48 40.77647 -74.11122 1743 ft 146 kts 208°
2026-05-04 02:48 40.76740 -74.11700 1538 ft 143 kts 208°
2026-05-04 02:48 40.75856 -74.12262 1338 ft 140 kts 207°
2026-05-04 02:49 40.74985 -74.12826 1165 ft 138 kts 207°
2026-05-04 02:49 40.74115 -74.13370 1031 ft 139 kts 206°
2026-05-04 02:49 40.73246 -74.13914 827 ft 138 kts 207°
2026-05-04 02:49 40.72389 -74.14482 640 ft 138 kts 207°
2026-05-04 02:50 40.71519 -74.15034 441 ft 138 kts 206°
2026-05-04 02:50 40.70650 -74.15581 233 ft 138 kts 207°
2026-05-04 02:50 40.69785 -74.16137 64 ft 139 kts 206°
2026-05-04 02:50 40.69008 -74.16633 20 ft 92 kts 205°
2026-05-04 02:51 40.68621 -74.16881 20 ft 44 kts 209°
2026-05-04 02:51 40.68463 -74.17137 23 ft 26 kts 232°
2026-05-04 02:51 40.68436 -74.17190 23 ft 3 kts 236°
2026-05-04 02:51 40.68414 -74.17224 23 ft 7 kts 220°
2026-05-04 02:52 40.68357 -74.17265 21 ft 12 kts 205°
2026-05-04 02:52 40.68309 -74.17296 21 ft 0 kts 206°